Regional Weather Roundup
Issued by NWS

Home | Current Version | Previous Version | Text Only | Print | Product List | Glossary Off
Versions: 1 2 3 4 5 6 7 8 9 10 11 12 13 14 15 16 17 18 19 20 21 22 23 24 25 26 27 28 29 30 31 32 33 34 35 36 37 38 39 40 41 42 43 44 45 46 47 48 49 50

000
ASUS45 KTFX 280504
RWRMT
MONTANA HOURLY WEATHER ROUNDUP
NATIONAL WEATHER SERVICE GREAT FALLS MT
1104 PM MDT SUN JUL 27 2014

NOTE: "FAIR" INDICATES FEW OR NO CLOUDS BELOW 12000 FEET WITH NO
SIGNIFICANT WEATHER AND/OR OBSTRUCTIONS TO VISIBILITY.

* THESE STATIONS ARE NOT UNDER NWS QUALITY CONTROL. THEY DO NOT
   REPORT WEATHER SUCH AS PRECIPITATION OR FOG.

MTZ001>007-043-280600-
WEST OF THE DIVIDE
CITY           SKY/WX    TMP DP  RH WIND       PRES   REMARKS
KALISPELL      PTCLDY    59  52  78 N3        30.16S
MISSOULA       PTCLDY    79  39  24 N6        30.16R
BUTTE          CLEAR     70  30  23 SE5       30.31R
MULLAN PASS    PTCLDY    68  36  31 SE3       30.35S
* ESSEX        N/A       61  46  58 NE1G6      N/A
* LINCOLN      N/A       62  43  50 S2         N/A
* LOOKOUT PASS N/A       65  45  49 N1         N/A
* POLSON       N/A       68  39  35 NE2        N/A
* RONAN APT    PTCLDY    63  50  63 N/A        N/A
* SEELEY LAKE  N/A       59  40  50 NE1        N/A
* THOMP F APT  PTCLDY    67  28  23 NE4        N/A
* YAAK HILL    N/A       70  45  41 N/A        N/A
$$

MTZ008-052>055-280600-
SOUTHWEST MONTANA
CITY           SKY/WX    TMP DP  RH WIND       PRES   REMARKS
BOZEMAN        CLEAR     70  39  32 W6        30.23S
DILLON         CLEAR     66  39  37 NW5       30.25R
W YELLOWSTONE  CLEAR     64  32  30 N6        30.38S
* THREE FORKS  CLEAR     66  52  61 N/A        N/A
* BOULDER HILL N/A       66  33  29 N/A        N/A
* MONIDA PASS  N/A       69  28  22 SE3G11     N/A
* RAYNOLDS PAS N/A       61  15  16 NE7        N/A
* WHITEHALL    N/A       72  40  31 NW3G9      N/A
* WISE RIVER   N/A       66  32  28 SW5G12     N/A
$$

MTZ009>010-012-014-046-048-049-054-280600-
EAST SLOPES AND CENTRAL MONTANA
CITY           SKY/WX    TMP DP  RH WIND       PRES   REMARKS
CUT BANK       PTCLDY    72  37  28 SE5       30.24S
GREAT FALLS    PTCLDY    70  39  32 E9        30.22R
HELENA         PTCLDY    75  37  25 SW6       30.19S
* CONRAD       CLEAR     55  48  77 N/A        N/A
* DEARBORN     N/A       77  38  25 NE1        N/A
* EAST GLACIER N/A       58  45  62 NW6        N/A
* MONARCH      N/A       58  35  42 E6         N/A
* ROGERS PASS  N/A       63  37  38 NW2        N/A
* SAINT MARY   N/A       53  45  74 SE3        N/A
* SWEET GRASS  N/A       69  40  35 SE8        N/A
$$

MTZ011-013-016-021-035-040-045-047-050-051-280600-
NORTH CENTRAL MONTANA
CITY           SKY/WX    TMP DP  RH WIND       PRES   REMARKS
HAVRE          CLEAR     68  45  44 E7        30.21R
LEWISTOWN      CLEAR     70  39  32 E13       30.29R
* CHESTER      N/A       73  42  33 E9G14      N/A
* DENTON       N/A       68  36  31 NE1G8      N/A
* GEYSER       N/A       65  38  37 N/A        N/A
* JUDITH GAP   N/A       69  39  34 E15G20     N/A
* LOMA         N/A       73  44  35 NE13       N/A
$$

MTZ017>020-022>027-061-062-280600-
NORTHEAST MONTANA
CITY           SKY/WX    TMP DP  RH WIND       PRES   REMARKS
GLASGOW        CLEAR     64  52  65 E13       30.24S
GLENDIVE       CLEAR     63  52  68 E7        30.30S
JORDAN         CLEAR     63  43  48 NE5       30.26R
SIDNEY         CLEAR     63  52  68 NE3       30.30S
WOLF POINT     CLEAR     61  52  72 E7        30.27R
* BEAVER HILL  N/A       60  52  75 E12G18     N/A
* CIRCLE       N/A       66  54  65 NE3G8      N/A
* LINDSAY DVD  N/A       59  52  78 NE8        N/A
* NAVAJO       N/A       58  53  84 S7         N/A
$$

MTZ028>042-056>058-280600-
SOUTHCENTRAL AND SOUTHEAST MONTANA
CITY           SKY/WX    TMP DP  RH WIND       PRES   REMARKS
BAKER          CLEAR     57  52  83 E7        30.32R
BILLINGS       CLEAR     73  41  32 E9        30.26R
LIVINGSTON     CLEAR     70  39  32 E10       30.26R
MILES CITY     CLEAR     70  48  46 E6        30.26R
* LAUREL APT   CLEAR     70  39  32 N/A        N/A
* ROUNDUP APT  CLEAR     72  37  28 N/A        N/A
* ALZADA       N/A       63  53  70 NE10       N/A
* HYSHAM       N/A       68  39  35 E6G11      N/A
* LAME DEER    N/A       67  41  39 E9         N/A
* REED POINT   N/A       67  41  39 N/A        N/A
* ROSCOE HILL  N/A       65  36  34 S8         N/A
$$

REGIONAL REPORTS...DAKOTAS
CITY           SKY/WX    TMP DP  RH WIND       PRES   REMARKS
WILLISTON      CLEAR     57  52  83 CALM      30.29S
DICKINSON      CLEAR     54  48  80 S5        30.31R
CROSBY         N/A       54  54 100 SE3       30.30S
TIOGA          CLEAR     50  50 100 CALM      30.33S
WATFORD CITY   CLEAR     55  54  96 SE7       30.28S
BISMARCK       CLEAR     54  50  86 CALM      30.30R
GRAND FORKS    CLOUDY    61  55  81 NW6        N/A
FARGO          CLOUDY    61  57  87 NW6       30.21R
BUFFALO SD     CLEAR     57  54  90 SE6       30.27R
RAPID CITY     CLEAR     61  54  78 NE8       30.34R
$$

REGIONAL REPORTS...WYOMING/IDAHO/WASHINGTON
CITY           SKY/WX    TMP DP  RH WIND       PRES   REMARKS
GILLETTE       PTCLDY    57  43  60 CALM      30.32S
SHERIDAN       CLEAR     57  48  72 SW7       30.30R
YELLOWSTONE LA CLEAR     52  36  55 NW3       30.51R
SALMON         CLEAR     66  36  33 CALM      30.13R
MULLAN PASS    PTCLDY    68  36  31 SE3       30.35S
SAND POINT     PTCLDY    61  50  67 CALM      30.11S
SPOKANE        MOCLDY    82  37  20 E3        30.09S

$$



USA.gov is the U.S. government's official web portal to all federal, state and local government web resources and services.